GEFSCGP_prec_meanprecacc_186.txt.gz
Total_Precipitation_Accumulation
0.56 0.72 0.82 0.77 0.79 0.84 0.74 0.68 0.64 0.51 0.42 0.43 0.41 0.40 0.42 0.39 0.35 0.36 0.38 0.37 0.41 0.34 0.29 0.22 0.20 0.19 0.25 0.28 0.27 0.27 0.31 0.32 0.29 0.26 0.31 0.36 0.36 0.45 0.53 0.59 0.64 0.69 0.72 0.80
0.56 0.59 0.53 0.55 0.61 0.73 0.74 0.73 0.69 0.61 0.44 0.41 0.40 0.41 0.38 0.36 0.33 0.29 0.26 0.25 0.31 0.29 0.26 0.22 0.19 0.16 0.15 0.16 0.18 0.23 0.23 0.22 0.21 0.20 0.25 0.33 0.40 0.46 0.60 0.75 0.85 0.87 0.86 0.91
0.54 0.49 0.42 0.45 0.52 0.66 0.66 0.62 0.56 0.63 0.55 0.49 0.52 0.53 0.42 0.39 0.35 0.29 0.23 0.23 0.27 0.26 0.22 0.20 0.19 0.18 0.14 0.15 0.16 0.18 0.20 0.20 0.19 0.25 0.42 0.70 0.94 1.02 1.04 1.06 1.20 1.29 1.25 1.20
0.68 0.46 0.39 0.41 0.45 0.51 0.70 0.51 0.43 0.52 0.65 0.63 0.52 0.57 0.39 0.38 0.39 0.33 0.27 0.24 0.25 0.26 0.24 0.20 0.17 0.17 0.13 0.14 0.18 0.18 0.19 0.23 0.24 0.38 0.70 1.09 1.41 1.50 1.50 1.63 1.67 1.73 1.66 1.51
0.55 0.38 0.38 0.41 0.37 0.43 0.67 0.54 0.52 0.55 0.58 0.55 0.35 0.37 0.30 0.32 0.40 0.36 0.33 0.32 0.33 0.29 0.26 0.21 0.19 0.17 0.18 0.20 0.24 0.27 0.31 0.42 0.55 0.68 0.84 1.14 1.34 1.45 1.59 1.76 1.90 2.03 2.13 2.09
0.39 0.31 0.34 0.35 0.34 0.37 0.48 0.57 0.67 0.67 0.63 0.60 0.28 0.25 0.29 0.30 0.32 0.34 0.34 0.36 0.35 0.30 0.24 0.23 0.24 0.24 0.26 0.33 0.37 0.41 0.50 0.58 0.64 0.73 0.84 0.99 1.08 1.24 1.44 1.60 1.77 1.93 2.04 2.05
0.39 0.34 0.29 0.28 0.41 0.44 0.45 0.64 0.90 0.95 0.89 0.62 0.23 0.22 0.26 0.21 0.21 0.24 0.26 0.25 0.25 0.27 0.27 0.26 0.25 0.30 0.35 0.41 0.45 0.52 0.61 0.68 0.70 0.75 0.83 0.91 0.97 1.11 1.27 1.33 1.38 1.42 1.43 1.45
0.37 0.39 0.26 0.23 0.30 0.37 0.37 0.45 0.74 0.88 0.71 0.49 0.24 0.30 0.31 0.19 0.15 0.12 0.14 0.18 0.22 0.30 0.32 0.32 0.30 0.38 0.45 0.51 0.60 0.67 0.74 0.77 0.77 0.82 0.90 0.90 0.99 1.11 1.21 1.16 1.11 1.14 1.19 1.26
0.32 0.31 0.18 0.19 0.20 0.23 0.36 0.36 0.41 0.50 0.39 0.41 0.30 0.29 0.22 0.11 0.10 0.09 0.14 0.22 0.30 0.39 0.41 0.42 0.43 0.49 0.54 0.62 0.69 0.74 0.79 0.82 0.88 0.89 0.96 1.09 1.13 1.14 1.11 1.00 0.95 0.98 0.95 0.96
0.25 0.30 0.22 0.20 0.23 0.25 0.29 0.37 0.43 0.49 0.54 0.51 0.34 0.30 0.25 0.16 0.15 0.19 0.26 0.34 0.45 0.55 0.58 0.59 0.64 0.67 0.69 0.70 0.76 0.79 0.86 0.92 0.93 0.94 1.04 1.20 1.14 0.92 0.76 0.67 0.71 0.76 0.80 0.84
0.17 0.26 0.27 0.23 0.22 0.25 0.30 0.29 0.34 0.41 0.41 0.60 0.73 0.73 0.60 0.55 0.44 0.48 0.51 0.58 0.74 0.77 0.79 0.78 0.81 0.84 0.79 0.79 0.83 0.84 0.88 0.98 1.00 0.95 1.04 1.07 0.85 0.61 0.50 0.48 0.46 0.45 0.47 0.53
0.13 0.22 0.26 0.20 0.15 0.15 0.23 0.23 0.23 0.41 0.43 0.50 0.81 0.88 0.77 0.79 0.76 0.85 0.92 1.06 1.01 0.96 0.95 0.87 0.81 0.80 0.69 0.68 0.76 0.81 0.90 0.95 0.87 0.82 0.80 0.65 0.47 0.38 0.35 0.32 0.26 0.22 0.22 0.23
0.14 0.20 0.31 0.31 0.26 0.16 0.16 0.14 0.14 0.21 0.39 0.49 0.83 0.91 0.71 0.78 0.88 1.03 1.13 1.14 0.94 0.79 0.70 0.64 0.61 0.55 0.49 0.52 0.57 0.60 0.71 0.77 0.59 0.47 0.44 0.40 0.33 0.30 0.27 0.22 0.20 0.17 0.17 0.17
0.14 0.18 0.25 0.32 0.27 0.15 0.13 0.10 0.11 0.17 0.35 0.43 0.59 0.66 0.60 0.70 0.86 0.96 0.99 0.87 0.64 0.50 0.44 0.39 0.29 0.27 0.29 0.32 0.31 0.28 0.32 0.42 0.36 0.29 0.25 0.24 0.24 0.24 0.23 0.23 0.24 0.18 0.15 0.16
0.15 0.17 0.15 0.14 0.10 0.08 0.08 0.08 0.10 0.13 0.19 0.35 0.45 0.45 0.48 0.49 0.52 0.54 0.57 0.53 0.41 0.30 0.22 0.19 0.16 0.16 0.20 0.21 0.20 0.17 0.15 0.17 0.20 0.20 0.19 0.20 0.20 0.19 0.18 0.20 0.20 0.17 0.14 0.12
0.15 0.15 0.11 0.10 0.07 0.07 0.06 0.06 0.09 0.12 0.16 0.24 0.26 0.27 0.25 0.21 0.18 0.17 0.20 0.24 0.21 0.15 0.11 0.11 0.10 0.11 0.13 0.13 0.12 0.11 0.10 0.09 0.10 0.09 0.09 0.11 0.13 0.14 0.15 0.16 0.15 0.13 0.12 0.10
0.17 0.17 0.15 0.11 0.07 0.09 0.08 0.04 0.05 0.09 0.11 0.14 0.17 0.21 0.21 0.15 0.09 0.07 0.07 0.08 0.09 0.10 0.10 0.09 0.08 0.10 0.11 0.10 0.10 0.11 0.09 0.08 0.07 0.06 0.06 0.07 0.07 0.07 0.06 0.05 0.06 0.06 0.06 0.05
0.15 0.18 0.21 0.16 0.14 0.14 0.06 0.03 0.03 0.04 0.05 0.09 0.11 0.11 0.12 0.09 0.07 0.06 0.05 0.05 0.06 0.07 0.09 0.10 0.09 0.08 0.10 0.11 0.11 0.13 0.12 0.10 0.07 0.06 0.06 0.06 0.05 0.05 0.04 0.03 0.03 0.03 0.02 0.03
0.14 0.18 0.26 0.22 0.18 0.09 0.04 0.04 0.04 0.03 0.03 0.04 0.04 0.04 0.03 0.03 0.06 0.05 0.04 0.04 0.05 0.06 0.07 0.08 0.10 0.10 0.10 0.11 0.12 0.13 0.13 0.12 0.09 0.07 0.07 0.06 0.06 0.07 0.07 0.06 0.05 0.03 0.04 0.04
0.16 0.18 0.25 0.25 0.21 0.14 0.06 0.03 0.03 0.03 0.04 0.03 0.03 0.03 0.02 0.03 0.06 0.04 0.04 0.03 0.04 0.05 0.05 0.06 0.06 0.07 0.08 0.11 0.12 0.12 0.13 0.10 0.07 0.07 0.08 0.08 0.07 0.07 0.08 0.08 0.07 0.07 0.07 0.07
0.19 0.21 0.21 0.21 0.20 0.10 0.03 0.02 0.03 0.06 0.06 0.04 0.03 0.03 0.03 0.03 0.04 0.04 0.03 0.02 0.03 0.04 0.04 0.04 0.06 0.07 0.07 0.10 0.12 0.13 0.13 0.10 0.07 0.09 0.11 0.12 0.10 0.10 0.14 0.15 0.11 0.09 0.09 0.10
0.18 0.19 0.18 0.18 0.19 0.10 0.03 0.03 0.04 0.04 0.03 0.03 0.03 0.03 0.03 0.02 0.03 0.02 0.03 0.03 0.03 0.04 0.04 0.04 0.05 0.06 0.06 0.08 0.10 0.12 0.14 0.12 0.11 0.12 0.13 0.14 0.15 0.15 0.17 0.17 0.15 0.13 0.12 0.12
0.16 0.15 0.15 0.11 0.09 0.04 0.03 0.04 0.03 0.03 0.02 0.02 0.02 0.02 0.02 0.02 0.02 0.02 0.02 0.02 0.02 0.02 0.03 0.04 0.05 0.06 0.06 0.09 0.09 0.09 0.13 0.15 0.15 0.15 0.15 0.16 0.17 0.17 0.17 0.18 0.17 0.14 0.12 0.13
0.15 0.12 0.13 0.09 0.05 0.05 0.04 0.03 0.03 0.03 0.02 0.02 0.02 0.02 0.02 0.02 0.01 0.02 0.01 0.01 0.01 0.02 0.02 0.03 0.04 0.05 0.05 0.07 0.10 0.14 0.15 0.17 0.19 0.18 0.17 0.17 0.17 0.17 0.17 0.17 0.16 0.15 0.14 0.13
0.17 0.14 0.12 0.11 0.06 0.05 0.06 0.04 0.03 0.02 0.02 0.01 0.01 0.01 0.01 0.01 0.01 0.01 0.01 0.01 0.02 0.02 0.02 0.04 0.04 0.06 0.06 0.08 0.10 0.13 0.15 0.16 0.17 0.18 0.17 0.16 0.15 0.15 0.15 0.14 0.14 0.14 0.14 0.14
0.12 0.12 0.11 0.11 0.07 0.06 0.06 0.05 0.03 0.02 0.02 0.01 0.01 0.01 0.01 0.01 0.02 0.01 0.01 0.02 0.02 0.02 0.03 0.05 0.07 0.07 0.07 0.08 0.09 0.11 0.13 0.13 0.13 0.15 0.15 0.14 0.13 0.13 0.13 0.13 0.13 0.14 0.16 0.17

GEFSCGP_prec_meanprecacc_192.txt.gz
Total_Precipitation_Accumulation
0.57 0.73 0.82 0.78 0.79 0.85 0.74 0.69 0.64 0.51 0.42 0.44 0.41 0.40 0.42 0.39 0.36 0.37 0.39 0.37 0.41 0.34 0.30 0.22 0.20 0.20 0.26 0.29 0.30 0.31 0.34 0.35 0.33 0.29 0.33 0.38 0.37 0.46 0.53 0.59 0.64 0.70 0.73 0.80
0.57 0.60 0.54 0.55 0.62 0.74 0.74 0.74 0.69 0.61 0.44 0.41 0.40 0.41 0.38 0.36 0.34 0.29 0.27 0.26 0.31 0.30 0.27 0.22 0.20 0.17 0.16 0.18 0.21 0.27 0.27 0.26 0.25 0.23 0.27 0.34 0.41 0.47 0.60 0.75 0.85 0.88 0.86 0.91
0.55 0.49 0.42 0.45 0.53 0.66 0.66 0.62 0.56 0.63 0.55 0.49 0.52 0.53 0.42 0.39 0.35 0.29 0.23 0.23 0.28 0.27 0.23 0.21 0.20 0.18 0.14 0.16 0.18 0.22 0.25 0.25 0.23 0.29 0.46 0.72 0.96 1.04 1.05 1.06 1.20 1.29 1.26 1.21
0.68 0.47 0.39 0.41 0.46 0.51 0.70 0.51 0.43 0.52 0.66 0.63 0.52 0.58 0.40 0.38 0.39 0.33 0.27 0.24 0.25 0.27 0.25 0.21 0.18 0.18 0.14 0.15 0.19 0.21 0.23 0.28 0.29 0.43 0.75 1.13 1.43 1.51 1.51 1.63 1.67 1.74 1.66 1.52
0.55 0.38 0.38 0.41 0.38 0.44 0.67 0.55 0.53 0.55 0.58 0.55 0.35 0.37 0.31 0.32 0.40 0.36 0.33 0.32 0.33 0.30 0.27 0.23 0.20 0.18 0.19 0.22 0.26 0.29 0.34 0.46 0.61 0.75 0.91 1.19 1.37 1.46 1.60 1.76 1.90 2.03 2.13 2.09
0.39 0.31 0.34 0.35 0.34 0.38 0.48 0.58 0.69 0.68 0.64 0.60 0.28 0.26 0.29 0.30 0.32 0.34 0.34 0.36 0.35 0.30 0.25 0.24 0.25 0.26 0.29 0.36 0.40 0.44 0.54 0.63 0.69 0.80 0.92 1.06 1.13 1.27 1.45 1.60 1.78 1.93 2.04 2.06
0.39 0.34 0.29 0.28 0.41 0.44 0.45 0.66 0.93 0.97 0.90 0.62 0.23 0.22 0.26 0.22 0.21 0.24 0.26 0.25 0.25 0.27 0.27 0.27 0.26 0.32 0.36 0.44 0.48 0.56 0.64 0.73 0.76 0.82 0.90 0.97 1.02 1.14 1.29 1.33 1.38 1.42 1.43 1.46
0.37 0.39 0.26 0.23 0.30 0.37 0.38 0.46 0.76 0.90 0.72 0.49 0.25 0.30 0.31 0.19 0.15 0.12 0.14 0.18 0.22 0.30 0.32 0.32 0.30 0.39 0.46 0.54 0.64 0.71 0.77 0.80 0.82 0.89 0.97 0.95 1.02 1.14 1.23 1.16 1.11 1.15 1.20 1.27
0.32 0.31 0.18 0.19 0.20 0.24 0.36 0.37 0.42 0.51 0.40 0.41 0.30 0.29 0.22 0.11 0.10 0.09 0.14 0.22 0.30 0.39 0.41 0.43 0.44 0.50 0.56 0.64 0.73 0.78 0.83 0.86 0.93 0.94 1.00 1.12 1.15 1.16 1.13 1.01 0.95 0.98 0.95 0.96
0.25 0.30 0.22 0.20 0.23 0.25 0.30 0.38 0.45 0.50 0.54 0.51 0.34 0.30 0.25 0.16 0.15 0.19 0.26 0.34 0.45 0.55 0.58 0.59 0.65 0.68 0.71 0.74 0.80 0.84 0.89 0.95 0.97 0.97 1.06 1.23 1.17 0.95 0.78 0.67 0.71 0.76 0.80 0.84
0.17 0.27 0.28 0.24 0.23 0.25 0.30 0.29 0.35 0.42 0.42 0.61 0.73 0.73 0.60 0.55 0.45 0.49 0.51 0.59 0.75 0.78 0.80 0.79 0.82 0.86 0.82 0.82 0.87 0.87 0.90 1.01 1.03 0.97 1.06 1.09 0.87 0.63 0.51 0.49 0.47 0.45 0.47 0.53
0.13 0.22 0.27 0.21 0.15 0.15 0.23 0.23 0.24 0.41 0.44 0.50 0.82 0.88 0.77 0.79 0.76 0.86 0.92 1.07 1.02 0.97 0.96 0.88 0.83 0.83 0.73 0.71 0.78 0.82 0.92 0.98 0.89 0.84 0.83 0.68 0.49 0.39 0.36 0.32 0.26 0.22 0.22 0.23
0.15 0.21 0.32 0.32 0.27 0.17 0.16 0.14 0.14 0.21 0.39 0.49 0.83 0.91 0.71 0.78 0.89 1.04 1.13 1.14 0.95 0.80 0.70 0.65 0.63 0.57 0.52 0.54 0.59 0.62 0.73 0.79 0.61 0.48 0.46 0.42 0.34 0.31 0.27 0.22 0.20 0.17 0.17 0.17
0.15 0.19 0.26 0.32 0.27 0.15 0.13 0.10 0.11 0.18 0.35 0.43 0.59 0.66 0.61 0.71 0.87 0.97 0.99 0.87 0.64 0.50 0.45 0.40 0.32 0.28 0.31 0.34 0.35 0.33 0.35 0.44 0.38 0.31 0.27 0.25 0.25 0.24 0.24 0.23 0.25 0.19 0.15 0.16
0.17 0.18 0.16 0.14 0.10 0.09 0.08 0.08 0.10 0.14 0.19 0.35 0.45 0.45 0.48 0.49 0.52 0.54 0.57 0.53 0.42 0.31 0.24 0.21 0.18 0.17 0.21 0.22 0.22 0.20 0.18 0.19 0.22 0.22 0.20 0.21 0.22 0.21 0.19 0.21 0.20 0.18 0.15 0.12
0.17 0.17 0.12 0.11 0.07 0.07 0.06 0.06 0.09 0.12 0.16 0.24 0.26 0.27 0.25 0.21 0.18 0.17 0.20 0.24 0.21 0.16 0.12 0.12 0.12 0.12 0.14 0.15 0.14 0.14 0.12 0.12 0.12 0.11 0.11 0.13 0.15 0.15 0.17 0.16 0.16 0.14 0.12 0.10
0.19 0.18 0.17 0.12 0.07 0.09 0.08 0.04 0.05 0.09 0.11 0.14 0.18 0.21 0.21 0.15 0.09 0.07 0.08 0.08 0.09 0.11 0.11 0.10 0.09 0.12 0.13 0.12 0.12 0.13 0.12 0.11 0.10 0.09 0.09 0.10 0.10 0.09 0.08 0.07 0.07 0.06 0.06 0.05
0.16 0.20 0.24 0.18 0.15 0.15 0.07 0.03 0.03 0.04 0.05 0.09 0.11 0.12 0.13 0.09 0.07 0.06 0.05 0.05 0.06 0.07 0.10 0.11 0.10 0.09 0.12 0.13 0.14 0.16 0.14 0.14 0.10 0.09 0.09 0.08 0.08 0.07 0.06 0.05 0.05 0.03 0.03 0.03
0.14 0.19 0.28 0.25 0.20 0.10 0.04 0.04 0.05 0.03 0.03 0.05 0.05 0.04 0.03 0.03 0.06 0.05 0.04 0.04 0.05 0.06 0.07 0.09 0.10 0.11 0.11 0.12 0.14 0.15 0.15 0.14 0.12 0.09 0.09 0.08 0.08 0.08 0.08 0.07 0.05 0.04 0.04 0.04
0.17 0.19 0.27 0.27 0.23 0.15 0.06 0.03 0.03 0.03 0.05 0.03 0.03 0.03 0.02 0.03 0.06 0.04 0.04 0.03 0.04 0.05 0.06 0.07 0.07 0.08 0.09 0.12 0.14 0.13 0.14 0.11 0.08 0.08 0.09 0.09 0.08 0.08 0.09 0.08 0.08 0.07 0.07 0.08
0.21 0.23 0.23 0.23 0.22 0.11 0.03 0.02 0.03 0.06 0.06 0.04 0.04 0.03 0.04 0.03 0.04 0.04 0.03 0.02 0.03 0.04 0.05 0.05 0.06 0.07 0.07 0.10 0.12 0.13 0.13 0.10 0.08 0.11 0.13 0.13 0.11 0.11 0.15 0.15 0.12 0.09 0.09 0.10
0.20 0.22 0.20 0.20 0.21 0.11 0.03 0.03 0.04 0.05 0.03 0.03 0.03 0.03 0.03 0.02 0.03 0.02 0.03 0.03 0.03 0.04 0.05 0.05 0.06 0.06 0.06 0.09 0.10 0.12 0.14 0.13 0.13 0.14 0.15 0.15 0.15 0.16 0.18 0.18 0.16 0.14 0.13 0.13
0.19 0.18 0.17 0.13 0.10 0.05 0.04 0.05 0.04 0.03 0.03 0.02 0.02 0.02 0.02 0.02 0.02 0.02 0.02 0.02 0.02 0.03 0.03 0.04 0.06 0.06 0.06 0.09 0.09 0.09 0.13 0.16 0.17 0.17 0.17 0.18 0.19 0.18 0.18 0.19 0.18 0.15 0.14 0.14
0.17 0.15 0.16 0.11 0.06 0.06 0.05 0.03 0.03 0.03 0.02 0.02 0.02 0.02 0.02 0.02 0.01 0.02 0.01 0.01 0.01 0.02 0.02 0.03 0.04 0.05 0.06 0.08 0.11 0.14 0.16 0.18 0.20 0.20 0.19 0.19 0.19 0.18 0.18 0.19 0.17 0.16 0.15 0.14
0.19 0.17 0.15 0.12 0.07 0.06 0.07 0.05 0.03 0.03 0.02 0.01 0.01 0.01 0.02 0.02 0.01 0.02 0.02 0.02 0.02 0.02 0.03 0.04 0.05 0.06 0.07 0.08 0.11 0.14 0.16 0.17 0.18 0.19 0.19 0.18 0.17 0.17 0.17 0.16 0.15 0.16 0.16 0.16
0.16 0.17 0.16 0.14 0.08 0.07 0.07 0.05 0.03 0.03 0.02 0.01 0.01 0.01 0.01 0.02 0.02 0.03 0.02 0.03 0.03 0.02 0.03 0.06 0.07 0.07 0.08 0.08 0.09 0.12 0.14 0.14 0.15 0.16 0.16 0.16 0.14 0.15 0.15 0.15 0.15 0.17 0.19 0.20

GEFSCGP_prec_meanprecacc_198.txt.gz
Total_Precipitation_Accumulation
0.58 0.73 0.83 0.78 0.79 0.85 0.74 0.69 0.65 0.52 0.43 0.45 0.42 0.41 0.43 0.40 0.36 0.37 0.39 0.37 0.42 0.34 0.30 0.23 0.21 0.20 0.26 0.30 0.30 0.33 0.36 0.36 0.34 0.30 0.35 0.40 0.39 0.48 0.56 0.62 0.67 0.73 0.75 0.82
0.57 0.60 0.54 0.56 0.62 0.74 0.74 0.74 0.70 0.61 0.45 0.42 0.41 0.42 0.40 0.37 0.35 0.30 0.27 0.26 0.31 0.30 0.27 0.23 0.20 0.17 0.16 0.18 0.22 0.28 0.29 0.28 0.26 0.24 0.28 0.36 0.42 0.48 0.62 0.77 0.87 0.90 0.88 0.94
0.55 0.49 0.42 0.45 0.53 0.66 0.67 0.62 0.56 0.63 0.55 0.50 0.52 0.54 0.44 0.39 0.37 0.30 0.23 0.24 0.28 0.27 0.23 0.22 0.21 0.19 0.15 0.17 0.18 0.22 0.26 0.27 0.26 0.31 0.48 0.73 0.97 1.06 1.08 1.09 1.23 1.31 1.28 1.24
0.68 0.47 0.39 0.41 0.46 0.52 0.71 0.51 0.43 0.53 0.66 0.63 0.52 0.58 0.40 0.38 0.40 0.33 0.27 0.25 0.26 0.28 0.25 0.21 0.18 0.18 0.14 0.16 0.20 0.22 0.24 0.30 0.32 0.47 0.77 1.14 1.45 1.53 1.53 1.66 1.69 1.75 1.68 1.54
0.55 0.38 0.38 0.42 0.38 0.44 0.68 0.55 0.53 0.56 0.58 0.55 0.36 0.38 0.31 0.32 0.40 0.36 0.33 0.32 0.33 0.30 0.28 0.23 0.20 0.19 0.19 0.22 0.27 0.31 0.36 0.48 0.64 0.78 0.94 1.22 1.39 1.48 1.62 1.77 1.92 2.05 2.15 2.10
0.39 0.31 0.34 0.35 0.34 0.38 0.49 0.60 0.70 0.69 0.65 0.61 0.29 0.26 0.30 0.31 0.32 0.34 0.34 0.36 0.35 0.30 0.25 0.24 0.26 0.27 0.29 0.37 0.42 0.45 0.56 0.64 0.72 0.83 0.95 1.09 1.15 1.29 1.47 1.62 1.80 1.96 2.07 2.07
0.39 0.34 0.29 0.28 0.41 0.45 0.47 0.68 0.94 0.98 0.90 0.63 0.24 0.23 0.27 0.22 0.21 0.24 0.26 0.25 0.25 0.27 0.27 0.27 0.26 0.32 0.37 0.44 0.49 0.57 0.65 0.74 0.78 0.85 0.94 1.00 1.04 1.16 1.31 1.35 1.40 1.44 1.46 1.47
0.37 0.40 0.27 0.23 0.30 0.37 0.39 0.48 0.78 0.91 0.72 0.49 0.25 0.31 0.31 0.19 0.15 0.12 0.14 0.18 0.22 0.30 0.33 0.32 0.31 0.39 0.47 0.55 0.65 0.72 0.78 0.81 0.84 0.92 1.00 0.98 1.06 1.17 1.26 1.19 1.13 1.16 1.21 1.27
0.32 0.31 0.18 0.19 0.20 0.24 0.37 0.38 0.44 0.52 0.40 0.41 0.31 0.29 0.22 0.12 0.10 0.09 0.14 0.22 0.30 0.39 0.41 0.43 0.44 0.50 0.57 0.65 0.74 0.79 0.85 0.88 0.95 0.96 1.03 1.16 1.19 1.19 1.17 1.05 0.99 1.00 0.96 0.97
0.25 0.31 0.22 0.21 0.24 0.25 0.30 0.39 0.46 0.52 0.55 0.52 0.35 0.30 0.25 0.16 0.16 0.20 0.26 0.34 0.45 0.56 0.58 0.60 0.65 0.69 0.72 0.75 0.81 0.85 0.91 0.97 0.98 0.98 1.09 1.27 1.21 0.97 0.81 0.72 0.75 0.79 0.82 0.85
0.18 0.28 0.29 0.25 0.23 0.25 0.30 0.29 0.36 0.43 0.43 0.61 0.73 0.73 0.60 0.55 0.45 0.49 0.51 0.59 0.75 0.78 0.80 0.79 0.83 0.86 0.83 0.83 0.89 0.89 0.92 1.03 1.05 0.99 1.08 1.12 0.91 0.65 0.53 0.52 0.50 0.48 0.49 0.54
0.14 0.24 0.28 0.21 0.16 0.16 0.23 0.23 0.24 0.42 0.44 0.50 0.82 0.89 0.78 0.79 0.76 0.86 0.93 1.07 1.02 0.97 0.96 0.88 0.84 0.83 0.74 0.72 0.79 0.84 0.94 1.00 0.92 0.86 0.85 0.70 0.53 0.41 0.38 0.34 0.29 0.24 0.23 0.24
0.17 0.24 0.34 0.34 0.28 0.18 0.17 0.14 0.14 0.22 0.39 0.50 0.84 0.91 0.71 0.78 0.89 1.04 1.13 1.14 0.95 0.80 0.71 0.65 0.63 0.57 0.53 0.55 0.60 0.63 0.74 0.80 0.62 0.50 0.48 0.43 0.36 0.33 0.29 0.24 0.21 0.19 0.18 0.17
0.18 0.22 0.29 0.34 0.28 0.16 0.14 0.11 0.11 0.18 0.36 0.44 0.59 0.66 0.61 0.71 0.87 0.97 0.99 0.87 0.64 0.51 0.45 0.41 0.32 0.28 0.31 0.34 0.36 0.34 0.36 0.45 0.39 0.32 0.28 0.27 0.26 0.26 0.25 0.24 0.25 0.19 0.16 0.17
0.20 0.21 0.17 0.16 0.11 0.10 0.09 0.09 0.10 0.14 0.20 0.35 0.45 0.46 0.48 0.49 0.52 0.54 0.57 0.54 0.42 0.32 0.24 0.21 0.18 0.18 0.22 0.23 0.22 0.20 0.18 0.20 0.23 0.22 0.21 0.22 0.23 0.22 0.20 0.21 0.20 0.18 0.15 0.13
0.21 0.19 0.13 0.12 0.08 0.08 0.07 0.07 0.09 0.12 0.17 0.24 0.26 0.27 0.25 0.21 0.18 0.17 0.20 0.24 0.22 0.16 0.13 0.13 0.12 0.13 0.15 0.15 0.14 0.14 0.12 0.12 0.13 0.12 0.11 0.14 0.16 0.16 0.18 0.17 0.16 0.14 0.13 0.11
0.21 0.21 0.19 0.13 0.08 0.10 0.09 0.05 0.06 0.09 0.11 0.14 0.18 0.21 0.21 0.15 0.09 0.07 0.08 0.09 0.10 0.11 0.12 0.11 0.10 0.12 0.14 0.13 0.13 0.14 0.13 0.11 0.10 0.10 0.10 0.11 0.11 0.10 0.09 0.08 0.08 0.06 0.07 0.06
0.18 0.22 0.26 0.20 0.17 0.17 0.08 0.03 0.03 0.04 0.05 0.09 0.11 0.12 0.13 0.09 0.07 0.06 0.05 0.05 0.06 0.08 0.10 0.11 0.10 0.10 0.13 0.14 0.14 0.16 0.15 0.14 0.10 0.09 0.09 0.09 0.09 0.08 0.07 0.06 0.05 0.04 0.04 0.05
0.16 0.22 0.31 0.28 0.22 0.12 0.05 0.05 0.05 0.03 0.03 0.05 0.05 0.04 0.03 0.03 0.06 0.05 0.04 0.04 0.05 0.06 0.07 0.09 0.11 0.11 0.11 0.13 0.14 0.15 0.15 0.15 0.12 0.10 0.09 0.09 0.09 0.09 0.09 0.08 0.07 0.05 0.05 0.06
0.19 0.21 0.31 0.31 0.27 0.17 0.07 0.04 0.03 0.04 0.05 0.04 0.03 0.03 0.02 0.03 0.06 0.05 0.04 0.03 0.04 0.05 0.06 0.07 0.07 0.08 0.09 0.12 0.14 0.13 0.15 0.12 0.09 0.09 0.10 0.11 0.09 0.08 0.10 0.09 0.08 0.07 0.09 0.09
0.24 0.26 0.28 0.28 0.25 0.12 0.04 0.03 0.03 0.07 0.07 0.05 0.04 0.03 0.04 0.03 0.04 0.04 0.03 0.02 0.03 0.05 0.05 0.05 0.06 0.07 0.07 0.10 0.12 0.13 0.14 0.10 0.08 0.11 0.14 0.15 0.13 0.13 0.16 0.16 0.13 0.10 0.10 0.11
0.23 0.25 0.24 0.24 0.23 0.12 0.04 0.04 0.05 0.05 0.04 0.04 0.03 0.03 0.03 0.03 0.03 0.02 0.03 0.03 0.03 0.04 0.05 0.05 0.06 0.07 0.07 0.09 0.10 0.12 0.14 0.13 0.13 0.15 0.16 0.17 0.17 0.18 0.20 0.20 0.17 0.15 0.14 0.14
0.22 0.22 0.20 0.15 0.11 0.06 0.05 0.05 0.04 0.03 0.03 0.02 0.02 0.02 0.02 0.02 0.02 0.02 0.02 0.02 0.03 0.03 0.03 0.04 0.06 0.06 0.06 0.09 0.09 0.10 0.13 0.17 0.17 0.17 0.17 0.19 0.20 0.19 0.19 0.20 0.19 0.16 0.14 0.15
0.20 0.17 0.18 0.12 0.06 0.07 0.07 0.05 0.04 0.03 0.02 0.02 0.02 0.02 0.02 0.02 0.02 0.02 0.02 0.02 0.02 0.02 0.03 0.03 0.05 0.05 0.06 0.08 0.11 0.15 0.16 0.18 0.21 0.21 0.20 0.19 0.20 0.19 0.19 0.20 0.18 0.16 0.16 0.14
0.22 0.21 0.18 0.14 0.08 0.08 0.09 0.07 0.04 0.03 0.02 0.01 0.01 0.01 0.02 0.02 0.01 0.02 0.02 0.02 0.02 0.02 0.03 0.04 0.05 0.06 0.07 0.08 0.11 0.14 0.16 0.17 0.19 0.20 0.20 0.19 0.18 0.17 0.18 0.17 0.17 0.17 0.17 0.18
0.20 0.23 0.22 0.17 0.11 0.10 0.10 0.07 0.05 0.03 0.02 0.02 0.01 0.01 0.01 0.02 0.02 0.03 0.02 0.03 0.03 0.03 0.03 0.06 0.07 0.07 0.08 0.08 0.09 0.12 0.14 0.14 0.15 0.17 0.17 0.16 0.15 0.15 0.16 0.16 0.16 0.18 0.20 0.22

GEFSCGP_prec_meanprecacc_204.txt.gz
Total_Precipitation_Accumulation
0.58 0.74 0.83 0.78 0.79 0.85 0.75 0.69 0.66 0.52 0.43 0.45 0.44 0.42 0.43 0.40 0.37 0.38 0.39 0.38 0.42 0.35 0.30 0.23 0.21 0.20 0.26 0.30 0.31 0.34 0.37 0.38 0.35 0.32 0.37 0.41 0.40 0.49 0.58 0.64 0.69 0.75 0.77 0.83
0.58 0.60 0.54 0.56 0.62 0.74 0.75 0.75 0.70 0.62 0.45 0.43 0.43 0.44 0.40 0.38 0.35 0.30 0.28 0.27 0.31 0.30 0.28 0.23 0.20 0.17 0.16 0.18 0.23 0.29 0.29 0.29 0.26 0.24 0.29 0.37 0.43 0.50 0.64 0.79 0.89 0.92 0.91 0.96
0.55 0.50 0.42 0.45 0.53 0.67 0.67 0.63 0.56 0.63 0.55 0.51 0.55 0.57 0.45 0.40 0.37 0.30 0.24 0.25 0.28 0.27 0.23 0.22 0.21 0.19 0.15 0.17 0.19 0.23 0.26 0.28 0.26 0.31 0.48 0.74 0.98 1.07 1.11 1.13 1.26 1.33 1.30 1.26
0.69 0.47 0.39 0.41 0.46 0.52 0.71 0.52 0.43 0.53 0.67 0.65 0.54 0.61 0.42 0.39 0.42 0.34 0.28 0.25 0.27 0.28 0.25 0.21 0.18 0.19 0.14 0.16 0.20 0.23 0.24 0.30 0.33 0.47 0.78 1.16 1.46 1.56 1.55 1.68 1.72 1.78 1.70 1.56
0.56 0.39 0.38 0.42 0.38 0.44 0.68 0.56 0.53 0.56 0.60 0.57 0.37 0.39 0.33 0.33 0.42 0.37 0.34 0.33 0.34 0.31 0.28 0.23 0.20 0.19 0.19 0.22 0.28 0.31 0.36 0.49 0.65 0.79 0.95 1.23 1.40 1.49 1.62 1.79 1.95 2.10 2.19 2.12
0.40 0.32 0.34 0.35 0.34 0.38 0.49 0.60 0.70 0.69 0.66 0.63 0.30 0.27 0.32 0.32 0.33 0.34 0.34 0.36 0.35 0.30 0.25 0.24 0.26 0.27 0.30 0.37 0.42 0.46 0.56 0.65 0.74 0.84 0.96 1.10 1.16 1.29 1.49 1.64 1.83 2.00 2.12 2.10
0.40 0.35 0.29 0.28 0.41 0.45 0.47 0.68 0.96 1.00 0.92 0.65 0.25 0.24 0.28 0.22 0.21 0.24 0.26 0.25 0.25 0.27 0.27 0.27 0.26 0.32 0.37 0.45 0.49 0.57 0.65 0.75 0.80 0.87 0.96 1.02 1.05 1.17 1.32 1.37 1.42 1.46 1.48 1.49
0.38 0.40 0.27 0.23 0.30 0.37 0.39 0.49 0.79 0.93 0.75 0.51 0.26 0.31 0.32 0.19 0.15 0.12 0.14 0.18 0.23 0.30 0.33 0.32 0.31 0.39 0.47 0.55 0.65 0.73 0.79 0.82 0.87 0.95 1.02 1.00 1.07 1.18 1.27 1.21 1.15 1.18 1.22 1.29
0.33 0.32 0.19 0.19 0.20 0.24 0.37 0.39 0.45 0.53 0.42 0.43 0.32 0.29 0.22 0.12 0.11 0.10 0.15 0.23 0.31 0.40 0.42 0.43 0.44 0.50 0.57 0.66 0.74 0.80 0.86 0.89 0.96 0.99 1.07 1.20 1.22 1.20 1.18 1.06 1.00 1.02 0.98 0.98
0.26 0.31 0.23 0.21 0.24 0.25 0.30 0.39 0.48 0.53 0.57 0.54 0.36 0.31 0.26 0.17 0.17 0.21 0.27 0.35 0.47 0.57 0.59 0.60 0.65 0.69 0.72 0.75 0.81 0.85 0.92 0.99 0.99 1.00 1.11 1.30 1.25 1.00 0.82 0.73 0.77 0.80 0.84 0.87
0.18 0.29 0.30 0.26 0.23 0.26 0.30 0.30 0.37 0.45 0.45 0.63 0.75 0.74 0.60 0.56 0.45 0.49 0.52 0.61 0.77 0.80 0.81 0.79 0.83 0.86 0.83 0.84 0.89 0.89 0.93 1.06 1.07 1.00 1.10 1.14 0.94 0.67 0.55 0.54 0.52 0.49 0.51 0.56
0.15 0.25 0.29 0.22 0.16 0.16 0.24 0.24 0.25 0.44 0.46 0.51 0.84 0.90 0.78 0.79 0.76 0.86 0.94 1.09 1.04 0.98 0.98 0.89 0.84 0.83 0.74 0.72 0.80 0.85 0.96 1.02 0.94 0.88 0.86 0.71 0.54 0.43 0.39 0.36 0.30 0.26 0.26 0.27
0.19 0.26 0.37 0.35 0.30 0.19 0.18 0.15 0.15 0.23 0.41 0.51 0.85 0.92 0.71 0.78 0.89 1.05 1.14 1.15 0.96 0.80 0.71 0.67 0.64 0.57 0.53 0.56 0.61 0.65 0.76 0.82 0.64 0.51 0.49 0.44 0.37 0.35 0.31 0.25 0.23 0.21 0.20 0.21
0.20 0.24 0.31 0.37 0.31 0.19 0.16 0.13 0.13 0.20 0.38 0.45 0.60 0.67 0.61 0.71 0.87 0.98 1.01 0.88 0.65 0.51 0.46 0.41 0.32 0.29 0.32 0.36 0.37 0.35 0.38 0.47 0.40 0.32 0.29 0.28 0.27 0.27 0.27 0.25 0.27 0.21 0.18 0.20
0.22 0.22 0.18 0.17 0.13 0.11 0.11 0.11 0.13 0.16 0.22 0.37 0.46 0.46 0.48 0.50 0.53 0.55 0.58 0.54 0.43 0.33 0.25 0.23 0.19 0.19 0.23 0.24 0.24 0.22 0.20 0.22 0.24 0.23 0.21 0.23 0.23 0.23 0.21 0.22 0.21 0.19 0.17 0.15
0.22 0.21 0.14 0.12 0.09 0.08 0.07 0.07 0.10 0.13 0.18 0.25 0.27 0.27 0.25 0.21 0.18 0.17 0.20 0.24 0.22 0.17 0.14 0.14 0.13 0.14 0.16 0.16 0.16 0.16 0.14 0.13 0.14 0.12 0.12 0.15 0.17 0.17 0.18 0.18 0.16 0.15 0.14 0.12
0.23 0.23 0.21 0.14 0.09 0.11 0.10 0.05 0.06 0.10 0.11 0.14 0.18 0.22 0.21 0.15 0.09 0.07 0.08 0.09 0.10 0.11 0.12 0.11 0.11 0.14 0.15 0.14 0.14 0.16 0.14 0.12 0.11 0.11 0.11 0.12 0.12 0.11 0.10 0.08 0.08 0.07 0.08 0.08
0.19 0.24 0.29 0.23 0.19 0.20 0.09 0.04 0.04 0.04 0.05 0.09 0.11 0.12 0.13 0.10 0.07 0.06 0.05 0.06 0.07 0.08 0.10 0.12 0.11 0.10 0.14 0.15 0.15 0.16 0.16 0.15 0.12 0.11 0.10 0.10 0.10 0.10 0.08 0.07 0.06 0.05 0.05 0.06
0.16 0.24 0.35 0.32 0.26 0.14 0.07 0.06 0.05 0.04 0.04 0.06 0.05 0.04 0.03 0.04 0.06 0.05 0.04 0.04 0.05 0.06 0.07 0.09 0.11 0.11 0.12 0.13 0.15 0.15 0.15 0.16 0.14 0.12 0.11 0.10 0.10 0.11 0.11 0.09 0.08 0.06 0.07 0.08
0.20 0.23 0.34 0.35 0.31 0.20 0.10 0.05 0.04 0.04 0.07 0.06 0.04 0.03 0.03 0.03 0.06 0.05 0.04 0.04 0.04 0.05 0.06 0.07 0.07 0.09 0.09 0.12 0.14 0.14 0.15 0.13 0.10 0.10 0.12 0.12 0.11 0.10 0.11 0.11 0.10 0.09 0.11 0.12
0.26 0.29 0.30 0.30 0.28 0.15 0.06 0.04 0.04 0.08 0.08 0.06 0.05 0.04 0.04 0.04 0.04 0.04 0.03 0.02 0.04 0.05 0.05 0.05 0.07 0.08 0.08 0.11 0.13 0.14 0.14 0.10 0.09 0.12 0.15 0.17 0.15 0.14 0.17 0.17 0.14 0.11 0.11 0.13
0.28 0.29 0.28 0.27 0.26 0.15 0.06 0.06 0.08 0.08 0.05 0.04 0.04 0.03 0.03 0.03 0.03 0.03 0.03 0.03 0.04 0.04 0.05 0.05 0.06 0.07 0.07 0.10 0.11 0.13 0.15 0.14 0.14 0.15 0.17 0.18 0.19 0.19 0.21 0.21 0.19 0.16 0.16 0.18
0.25 0.26 0.24 0.18 0.13 0.07 0.07 0.08 0.08 0.06 0.04 0.03 0.02 0.03 0.02 0.03 0.03 0.02 0.03 0.03 0.03 0.03 0.03 0.05 0.06 0.07 0.07 0.10 0.10 0.12 0.15 0.18 0.18 0.18 0.18 0.19 0.21 0.20 0.20 0.21 0.20 0.17 0.16 0.17
0.21 0.19 0.21 0.15 0.08 0.08 0.09 0.09 0.08 0.07 0.04 0.02 0.02 0.02 0.02 0.02 0.02 0.02 0.02 0.02 0.02 0.03 0.03 0.04 0.05 0.05 0.07 0.09 0.12 0.16 0.18 0.20 0.22 0.21 0.21 0.20 0.20 0.20 0.20 0.21 0.19 0.17 0.17 0.16
0.25 0.24 0.21 0.17 0.12 0.10 0.11 0.10 0.08 0.07 0.04 0.02 0.01 0.02 0.02 0.02 0.02 0.02 0.02 0.02 0.02 0.02 0.03 0.04 0.05 0.06 0.07 0.09 0.12 0.15 0.17 0.18 0.19 0.20 0.21 0.21 0.19 0.18 0.19 0.18 0.19 0.20 0.18 0.19
0.22 0.26 0.26 0.22 0.15 0.14 0.13 0.10 0.07 0.06 0.04 0.03 0.02 0.02 0.02 0.02 0.03 0.03 0.03 0.03 0.03 0.03 0.03 0.06 0.07 0.08 0.08 0.09 0.10 0.13 0.15 0.15 0.15 0.18 0.18 0.18 0.17 0.17 0.17 0.17 0.18 0.22 0.25 0.26